Location: Hamilton
(37.7830°S, 175.2830°E)
Time: 18:52:18
(UTC+13:00)

Meteor 2-10 Rocket - Pass Details

Date: 24 January 2019
Orbit: 733 x 886 km, 81.2° (Epoch: 23 October)

Event Time Altitude Azimuth Distance (km) Brightness Sun altitude
Rises 21:32:15 0° 342° (NNW) 3,167 6.5 -10.1°
Reaches altitude 10° 21:34:34 10° 337° (NNW) 2,264 5.8 -10.5°
Maximum altitude 21:39:34 57° 259° (WSW) 904 4.2 -11.3°
Drops below altitude 10° 21:44:49 10° 179° (S) 2,372 6.5 -12.1°
Sets 21:47:18 0° 175° (S) 3,333 7.3 -12.5°
